EW1914 Weather Reports


time (UTC)temp
C
wind
direction
speed
KPH
gust
KPH
rain 1hr
cm
rain 24hr
cm
rain mn
cm
humidity
%
barometer
mb
20200531081354 11 292 0.0 4.8 0.00 0.66 0.00 91 1015.3
20200531080401 11 180 0.0 0.0 0.00 0.66 0.00 92 1015.2
20200531075402 11 318 0.0 0.0 0.00 0.66 0.00 91 1014.9
20200531074350 11 285 1.6 9.7 0.00 0.66 0.00 91 1014.8
20200531073344 11 271 0.0 3.2 0.00 0.66 0.00 91 1014.8
20200531072358 11 277 0.0 3.2 0.00 0.66 0.00 92 1014.8
20200531071358 11 291 0.0 4.8 0.00 0.66 0.00 91 1014.9
20200531070352 12 239 0.0 0.0 0.00 0.66 0.00 92 1015.0
20200531065327 12 180 0.0 1.6 0.00 0.66 0.66 91 1015.1
20200531064304 12 180 0.0 3.2 0.00 0.61 0.64 91 1015.0
20200531063304 12 315 0.0 0.0 0.00 0.61 0.64 92 1015.0
20200531062324 12 336 0.0 3.2 0.00 0.61 0.64 92 1015.2
20200531061309 12 8 0.0 3.2 0.00 0.61 0.61 92 1015.3
20200531060257 12 266 0.0 0.0 0.00 0.61 0.61 92 1015.1
20200531055221 12 238 0.0 3.2 0.00 0.61 0.61 92 1015.0
20200531054241 12 97 0.0 0.0 0.00 0.61 0.61 92 1014.9
20200531053224 12 97 0.0 1.6 0.00 0.61 0.61 92 1014.8
20200531052210 12 281 0.0 0.0 0.00 0.61 0.61 91 1014.6
20200531051212 12 281 0.0 3.2 0.00 0.61 0.61 91 1014.6
20200531050232 12 302 0.0 3.2 0.00 0.61 0.61 90 1014.5
20200531045209 12 302 1.6 11.3 0.00 0.61 0.61 90 1014.5
20200531044217 12 303 0.0 3.2 0.00 0.61 0.61 90 1014.5
20200531043230 12 310 1.6 4.8 0.00 0.61 0.61 91 1014.4
20200531042216 12 289 0.0 1.6 0.00 0.61 0.61 91 1014.4
20200531041238 12 310 0.0 0.0 0.00 0.61 0.61 90 1014.4
20200531040239 12 308 0.0 4.8 0.00 0.61 0.61 90 1014.2
20200531035252 12 295 1.6 8.0 0.00 0.61 0.61 89 1014.0
20200531034225 12 289 1.6 8.0 0.00 0.61 0.61 90 1014.0
20200531033232 12 295 0.0 1.6 0.00 0.61 0.61 91 1014.0
20200531032219 12 296 0.0 0.0 0.00 0.61 0.61 91 1014.1
20200531031148 12 293 0.0 4.8 0.00 0.61 0.61 90 1014.0
20200531030113 13 313 0.0 0.0 0.00 0.61 0.61 90 1014.0
20200531025132 13 313 0.0 3.2 0.00 0.61 0.61 90 1013.9
20200531024103 13 180 0.0 0.0 0.00 0.61 0.61 90 1013.8
20200531023041 13 180 0.0 3.2 0.00 0.61 0.61 90 1013.8
20200531022027 13 287 0.0 3.2 0.00 0.61 0.61 92 1013.5
20200531021001 13 304 0.0 3.2 0.00 0.61 0.61 92 1013.4
20200531015932 13 39 0.0 0.0 0.00 0.61 0.61 92 1013.4
20200531014904 13 39 0.0 0.0 0.00 0.61 0.61 92 1013.2
20200531013914 13 39 0.0 0.0 0.00 0.61 0.61 92 1013.1
20200531012913 13 39 0.0 0.0 0.00 0.61 0.61 92 1013.1
20200531011926 13 39 0.0 0.0 0.00 0.61 0.61 92 1013.2
20200531010914 13 39 0.0 0.0 0.00 0.61 0.61 91 1013.0
20200531005924 13 39 0.0 0.0 0.00 0.61 0.61 91 1012.9
20200531004942 13 39 0.0 0.0 0.00 0.61 0.61 91 1013.1
20200531003958 13 39 0.0 0.0 0.00 0.61 0.61 91 1013.0
20200531002937 13 306 0.0 0.0 0.00 0.61 0.61 90 1013.0
20200531001922 13 302 0.0 0.0 0.00 0.61 0.61 91 1013.0
20200531000851 13 309 0.0 6.4 0.10 0.61 0.61 91 1012.9
20200530235817 13 296 0.0 4.8 0.10 0.61 0.61 90 1012.9
20200530234820 13 266 0.0 1.6 0.20 0.58 0.58 90 1012.9
20200530233814 13 285 1.6 12.9 0.25 0.53 0.53 89 1013.1
20200530232809 13 292 1.6 12.9 0.23 0.53 0.53 88 1012.3
20200530231743 13 316 0.0 6.4 0.33 0.48 0.48 87 1011.8
20200530230758 14 306 0.0 0.0 0.64 0.41 0.41 86 1013.2
20200530225750 14 306 0.0 1.6 0.94 0.23 0.23 85 1013.6
20200530224809 14 306 0.0 0.0 0.46 0.10 0.10 83 1013.8
20200530223827 15 289 1.6 8.0 0.00 0.05 0.05 82 1013.6
20200530222800 15 293 1.6 16.1 0.00 0.05 0.05 78 1013.6
20200530221750 15 286 4.8 16.1 0.00 0.05 0.05 77 1013.1
20200530220803 16 320 3.2 14.5 0.00 0.05 0.05 76 1012.5
20200530215750 16 312 4.8 11.3 0.00 0.05 0.05 73 1011.8
20200530214803 16 299 3.2 9.7 0.00 0.05 0.05 72 1011.6
20200530213823 16 302 0.0 9.7 0.00 0.05 0.05 73 1011.2
20200530212834 16 297 1.6 9.7 0.00 0.05 0.05 70 1010.4
20200530211812 17 338 0.0 3.2 0.00 0.05 0.05 68 1009.8
20200530210824 17 303 1.6 8.0 0.00 0.05 0.05 67 1009.8
20200530205808 17 309 1.6 12.9 0.00 0.05 0.05 66 1009.7
20200530204742 17 288 0.0 14.5 0.00 0.05 0.05 63 1009.7
20200530203732 17 339 1.6 14.5 0.00 0.05 0.05 62 1009.6
20200530202704 17 320 3.2 14.5 0.00 0.05 0.05 61 1009.5
20200530201702 17 301 4.8 14.5 0.00 0.05 0.05 61 1009.5
20200530200703 17 310 1.6 14.5 0.00 0.05 0.05 60 1009.4
20200530195705 17 270 3.2 14.5 0.00 0.05 0.05 59 1009.4
20200530194725 17 314 4.8 14.5 0.00 0.05 0.05 59 1009.4
20200530193741 17 322 4.8 16.1 0.00 0.05 0.05 58 1009.4
20200530192802 17 295 6.4 19.3 0.00 0.05 0.05 61 1009.3
20200530191800 17 287 8.0 19.3 0.00 0.05 0.05 62 1009.4
20200530190800 18 295 8.0 17.7 0.00 0.05 0.05 62 1009.4
20200530185751 17 286 6.4 16.1 0.00 0.05 0.05 64 1009.5
20200530184808 17 293 4.8 17.7 0.00 0.05 0.05 67 1009.2
20200530183824 16 330 3.2 17.7 0.00 0.05 0.05 71 1009.2
20200530182824 16 284 4.8 17.7 0.00 0.05 0.05 75 1008.9
20200530181847 16 312 4.8 16.1 0.00 0.05 0.05 74 1008.8
20200530180832 15 288 1.6 9.7 0.00 0.05 0.05 76 1008.8
20200530175808 15 308 1.6 9.7 0.00 0.05 0.05 77 1008.7
20200530174801 15 313 1.6 8.0 0.00 0.05 0.05 78 1008.7
20200530173728 15 293 1.6 8.0 0.00 0.05 0.05 77 1008.6
20200530172705 15 342 0.0 9.7 0.00 0.05 0.05 77 1008.5
20200530171722 15 350 0.0 8.0 0.00 0.05 0.05 78 1008.4
20200530170659 15 331 1.6 9.7 0.00 0.05 0.05 78 1008.5
20200530165656 15 320 0.0 6.4 0.00 0.05 0.05 78 1008.0
20200530164653 15 28 0.0 3.2 0.00 0.05 0.05 80 1007.9
20200530163650 15 341 0.0 6.4 0.00 0.05 0.05 82 1008.0
20200530162620 15 349 0.0 8.0 0.00 0.05 0.05 84 1008.2
20200530161628 15 349 1.6 8.0 0.00 0.05 0.05 83 1008.4
20200530160612 14 26 0.0 9.7 0.00 0.05 0.05 87 1008.1
20200530155615 13 310 0.0 4.8 0.00 0.03 0.03 87 1008.3
20200530154619 13 355 0.0 1.6 0.00 0.03 0.03 88 1008.4
20200530153555 13 355 0.0 1.6 0.00 0.03 0.03 88 1008.8
20200530152523 13 310 0.0 0.0 0.00 0.03 0.03 88 1008.7
20200530151505 13 41 0.0 6.4 0.00 0.03 0.03 90 1008.6
20200530150442 13 271 0.0 0.0 0.00 0.03 0.03 89 1008.5
20200530145453 13 120 0.0 0.0 0.00 0.03 0.03 89 1009.6
20200530144438 13 80 0.0 4.8 0.00 0.03 0.03 88 1009.2
20200530143456 13 180 3.2 11.3 0.00 0.03 0.03 87 1008.9
20200530142432 13 180 1.6 8.0 0.00 0.03 0.03 87 1008.7
20200530141414 13 180 1.6 8.0 0.00 0.00 0.00 86 1008.5
20200530140432 13 12 0.0 4.8 0.00 0.00 0.00 85 1008.2
20200530135433 13 180 0.0 1.6 0.00 0.00 0.00 83 1009.4
20200530134455 14 78 0.0 4.8 0.00 0.00 0.00 82 1009.8
20200530133450 14 107 0.0 0.0 0.00 0.00 0.00 81 1009.8
20200530132454 14 180 0.0 3.2 0.00 0.00 0.00 77 1010.3
20200530131457 14 104 0.0 4.8 0.00 0.00 0.00 75 1010.5
20200530130500 14 239 1.6 6.4 0.00 0.00 0.00 75 1010.8
20200530125513 14 180 0.0 6.4 0.00 0.00 0.00 75 1009.7
20200530124531 14 31 0.0 4.8 0.00 0.00 0.00 75 1008.6
20200530123543 14 328 0.0 0.0 0.00 0.00 0.00 74 1008.6
20200530122523 14 328 0.0 0.0 0.00 0.00 0.00 74 1008.7
20200530121546 14 4 0.0 1.6 0.00 0.00 0.00 73 1008.7
20200530120608 14 342 0.0 3.2 0.00 0.00 0.00 72 1008.6
20200530115626 14 345 0.0 0.0 0.00 0.00 0.00 72 1008.6
20200530114647 14 355 0.0 6.4 0.00 0.00 0.00 71 1008.4
20200530113649 15 35 0.0 0.0 0.00 0.00 0.00 71 1008.5
20200530112652 15 351 0.0 3.2 0.00 0.00 0.00 70 1008.6
20200530111644 15 15 0.0 4.8 0.00 0.00 0.00 70 1008.4
20200530110707 15 23 0.0 0.0 0.00 0.00 0.00 69 1008.5
20200530105725 15 1 0.0 1.6 0.00 0.00 0.00 68 1008.3
20200530104737 15 355 0.0 0.0 0.00 0.00 0.00 68 1008.1
20200530103720 15 14 0.0 8.0 0.00 0.00 0.00 68 1008.0
20200530102723 15 340 1.6 8.0 0.00 0.00 0.00 67 1007.9
20200530101722 15 301 0.0 4.8 0.00 0.00 0.00 67 1008.1
20200530100706 15 324 0.0 11.3 0.00 0.00 0.00 66 1008.5
20200530095639 15 18 0.0 17.7 0.00 0.00 0.00 67 1007.9
20200530094656 16 345 1.6 17.7 0.00 0.00 0.00 66 1007.9
20200530093711 16 309 0.0 17.7 0.00 0.00 0.00 65 1007.8
20200530092651 16 331 0.0 9.7 0.00 0.00 0.00 65 1008.1
20200530091626 16 22 0.0 3.2 0.00 0.00 0.00 64 1008.0
20200530090612 16 24 1.6 8.0 0.00 0.00 0.00 64 1008.1
20200530085627 16 314 0.0 11.3 0.00 0.00 0.00 64 1008.1
20200530084559 16 16 0.0 3.2 0.00 0.00 0.00 63 1008.1
20200530083548 16 310 0.0 3.2 0.00 0.00 0.00 63 1008.1
20200530082611 16 6 0.0 3.2 0.00 0.00 0.00 62 1008.1